Atmospheric History
12/06/2017 18:45  to  12/7/2017 18:45
Change End Date:
To complete the export process:
1) Select all of the data below
2) Copy the data to the clipboard
3) Open a word processor such as Notepad
4) Paste the data into the word processor
5) Save the file

Date/Time (MST), AirTemp, RH, Dewpoint ,AvgWindSpeed, GustWindSpeed, WindDirection, PrecipType, PrecipIntensity, PrecipAccumulation, PrecipRate
12/07/2017 18:39, 41, 26, 10 ,6, 9, W, None, None, ,  
12/07/2017 18:35, 42, 26, 10 ,2, 11, SW, None, None, ,  
12/07/2017 18:29, 42, 26, 10 ,7, 11, W, None, None, ,  
12/07/2017 18:20, 43, 26, 11 ,11, 15, W, None, None, ,  
12/07/2017 18:19, 43, 26, 11 ,10, 15, W, None, None, ,  
12/07/2017 18:09, 43, 26, 10 ,7, 13, W, None, None, ,  
12/07/2017 18:05, 42, 26, 10 ,8, 13, W, None, None, ,  
12/07/2017 17:59, 43, 25, 10 ,6, 14, NW, None, None, ,  
12/07/2017 17:50, 44, 25, 11 ,9, 19, W, None, None, ,  
12/07/2017 17:49, 44, 25, 11 ,11, 19, W, None, None, ,  
12/07/2017 17:39, 43, 26, 11 ,11, 14, W, None, None, ,  
12/07/2017 17:35, 43, 26, 11 ,12, 14, W, None, None, ,  
12/07/2017 17:29, 42, 26, 10 ,7, 14, W, None, None, ,  
12/07/2017 17:20, 42, 25, 10 ,6, 11, W, None, None, ,  
12/07/2017 17:19, 42, 25, 10 ,6, 11, W, None, None, ,  
12/07/2017 17:08, 43, 25, 10 ,9, 16, W, None, None, ,  
12/07/2017 17:05, 43, 24, 10 ,12, 17, W, None, None, ,  
12/07/2017 16:58, 44, 24, 10 ,12, 17, NW, None, None, ,  
12/07/2017 16:50, 44, 24, 10 ,12, 18, W, None, None, ,  
12/07/2017 16:48, 44, 24, 10 ,11, 18, W, None, None, ,  
12/07/2017 16:38, 45, 24, 10 ,11, 20, W, None, None, ,  
12/07/2017 16:35, 45, 24, 10 ,13, 20, W, None, None, ,  
12/07/2017 16:28, 45, 23, 10 ,12, 18, W, None, None, ,  
12/07/2017 16:20, 46, 23, 10 ,11, 16, W, None, None, ,  
12/07/2017 16:18, 46, 23, 10 ,11, 16, W, None, None, ,  
12/07/2017 16:08, 46, 22, 10 ,14, 21, W, None, None, ,  
12/07/2017 16:05, 46, 22, 10 ,14, 21, NW, None, None, ,  
12/07/2017 15:58, 47, 22, 10 ,15, 23, W, None, None, ,  
12/07/2017 15:50, 47, 22, 10 ,14, 23, W, None, None, ,  
12/07/2017 15:48, 47, 22, 10 ,16, 23, NW, None, None, ,  
12/07/2017 15:38, 47, 22, 11 ,19, 25, W, None, None, ,  
12/07/2017 15:35, 47, 22, 11 ,17, 25, W, None, None, ,  
12/07/2017 15:28, 47, 22, 11 ,17, 26, W, None, None, ,  
12/07/2017 15:20, 47, 22, 11 ,15, 24, W, None, None, ,  
12/07/2017 15:18, 47, 22, 11 ,16, 26, NW, None, None, ,  
12/07/2017 15:08, 48, 22, 11 ,17, 24, W, None, None, ,  
12/07/2017 15:06, 48, 22, 11 ,16, 24, W, None, None, ,  
12/07/2017 14:58, 48, 22, 11 ,17, 25, W, None, None, ,  
12/07/2017 14:50, 48, 22, 11 ,18, 29, W, None, None, ,  
12/07/2017 14:48, 48, 22, 11 ,17, 29, W, None, None, ,  
12/07/2017 14:38, 48, 22, 11 ,14, 24, NW, None, None, ,  
12/07/2017 14:36, 48, 22, 11 ,15, 25, W, None, None, ,  
12/07/2017 14:28, 48, 22, 11 ,18, 25, W, None, None, ,  
12/07/2017 14:21, 48, 22, 11 ,12, 26, W, None, None, ,  
12/07/2017 14:18, 48, 22, 12 ,12, 26, W, None, None, ,  
12/07/2017 14:08, 48, 22, 12 ,17, 24, W, None, None, ,  
12/07/2017 14:05, 48, 22, 12 ,15, 24, W, None, None, ,  
12/07/2017 13:58, 49, 22, 12 ,12, 30, W, None, None, ,  
12/07/2017 13:51, 48, 23, 12 ,20, 29, W, None, None, ,  
12/07/2017 13:48, 49, 23, 13 ,19, 27, W, None, None, ,  
12/07/2017 13:38, 48, 23, 13 ,19, 28, W, None, None, ,  
12/07/2017 13:35, 48, 23, 13 ,21, 28, W, None, None, ,  
12/07/2017 13:28, 48, 24, 13 ,20, 29, W, None, None, ,  
12/07/2017 13:20, 48, 24, 13 ,17, 29, W, None, None, ,  
12/07/2017 13:17, 48, 24, 13 ,19, 29, NW, None, None, ,  
12/07/2017 13:07, 47, 25, 13 ,19, 25, NW, None, None, ,  
12/07/2017 13:05, 47, 25, 14 ,17, 19, NW, None, None, ,  
12/07/2017 12:57, 46, 26, 14 ,14, 19, NW, None, None, ,  
12/07/2017 12:50, 46, 26, 14 ,12, 21, W, None, None, ,  
12/07/2017 12:47, 46, 27, 14 ,15, 19, W, None, None, ,  
12/07/2017 12:37, 45, 28, 14 ,14, 21, W, None, None, ,  
12/07/2017 12:35, 45, 28, 14 ,12, 17, W, None, None, ,  
12/07/2017 12:27, 44, 29, 14 ,8, 16, NW, None, None, ,  
12/07/2017 12:20, 44, 29, 14 ,12, 16, W, None, None, ,  
12/07/2017 12:17, 44, 29, 14 ,10, 16, NW, None, None, ,  
12/07/2017 12:07, 44, 30, 14 ,12, 21, W, None, None, ,  
12/07/2017 12:05, 44, 30, 14 ,10, 21, W, None, None, ,  
12/07/2017 11:57, 43, 30, 14 ,12, 21, W, None, None, ,  
12/07/2017 11:50, 43, 30, 14 ,14, 21, W, None, None, ,  
12/07/2017 11:47, 43, 30, 15 ,12, 20, W, None, None, ,  
12/07/2017 11:37, 43, 31, 15 ,12, 20, NW, None, None, ,  
12/07/2017 11:35, 43, 31, 15 ,12, 27, W, None, None, ,  
12/07/2017 11:27, 42, 33, 16 ,13, 22, W, None, None, ,  
12/07/2017 11:20, 42, 35, 17 ,17, 22, NW, None, None, ,  
12/07/2017 11:17, 41, 36, 17 ,12, 19, W, None, None, ,  
12/07/2017 11:07, 40, 39, 17 ,12, 17, NW, None, None, ,  
12/07/2017 11:05, 39, 40, 17 ,13, 17, W, None, None, ,  
12/07/2017 10:57, 37, 42, 17 ,9, 13, W, None, None, ,  
12/07/2017 10:50, 37, 43, 17 ,7, 13, W, None, None, ,  
12/07/2017 10:47, 37, 43, 17 ,9, 13, W, None, None, ,  
12/07/2017 10:37, 37, 44, 17 ,10, 16, W, None, None, ,  
12/07/2017 10:35, 37, 44, 17 ,8, 16, W, None, None, ,  
12/07/2017 10:27, 36, 44, 17 ,11, 14, W, None, None, ,  
12/07/2017 10:20, 36, 44, 17 ,12, 16, W, None, None, ,  
12/07/2017 10:17, 36, 44, 17 ,11, 16, W, None, None, ,  
12/07/2017 10:07, 36, 46, 17 ,7, 13, W, None, None, ,  
12/07/2017 10:05, 35, 46, 17 ,9, 13, W, None, None, ,  
12/07/2017 09:56, 35, 47, 17 ,9, 11, W, None, None, ,  
12/07/2017 09:51, 34, 48, 17 ,6, 11, W, None, None, ,  
12/07/2017 09:46, 34, 48, 17 ,7, 11, W, None, None, ,  
12/07/2017 09:36, 34, 48, 17 ,9, 14, W, None, None, ,  
12/07/2017 09:35, 34, 48, 16 ,11, 14, W, None, None, ,  
12/07/2017 09:26, 33, 49, 16 ,6, 12, W, None, None, ,  
12/07/2017 09:20, 33, 50, 16 ,9, 12, W, None, None, ,  
12/07/2017 09:16, 33, 50, 16 ,8, 12, W, None, None, ,  
12/07/2017 09:06, 32, 51, 16 ,9, 11, W, None, None, ,  
12/07/2017 09:05, 32, 51, 16 ,7, 11, W, None, None, ,  
12/07/2017 08:56, 32, 52, 16 ,7, 12, W, None, None, ,  
12/07/2017 08:50, 31, 53, 16 ,7, 12, W, None, None, ,  
12/07/2017 08:46, 31, 53, 16 ,7, 12, W, None, None, ,  
12/07/2017 08:36, 30, 54, 16 ,7, 11, W, None, None, ,  
12/07/2017 08:35, 30, 54, 16 ,5, 10, W, None, None, ,  
12/07/2017 08:26, 30, 55, 16 ,4, 9, W, None, None, ,  
12/07/2017 08:20, 29, 56, 16 ,6, 9, W, None, None, ,  
12/07/2017 08:16, 29, 56, 16 ,5, 9, W, None, None, ,  
12/07/2017 08:06, 29, 57, 16 ,6, 10, W, None, None, ,  
12/07/2017 08:05, 29, 57, 16 ,5, 10, W, None, None, ,  
12/07/2017 07:56, 28, 58, 15 ,2, 9, SW, None, None, ,  
12/07/2017 07:50, 28, 58, 15 ,5, 9, W, None, None, ,  
12/07/2017 07:46, 28, 58, 15 ,6, 9, W, None, None, ,  
12/07/2017 07:36, 28, 59, 15 ,6, 7, W, None, None, ,  
12/07/2017 07:35, 28, 59, 15 ,6, 7, W, None, None, ,  
12/07/2017 07:26, 27, 59, 15 ,2, 7, W, None, None, ,  
12/07/2017 07:20, 27, 59, 15 ,4, 7, W, None, None, ,  
12/07/2017 07:16, 27, 59, 15 ,3, 9, W, None, None, ,  
12/07/2017 07:06, 27, 59, 15 ,4, 7, W, None, None, ,  
12/07/2017 07:05, 27, 59, 15 ,3, 6, W, None, None, ,  
12/07/2017 06:56, 27, 59, 14 ,4, 7, W, None, None, ,  
12/07/2017 06:50, 27, 59, 14 ,4, 6, W, None, None, ,  
12/07/2017 06:46, 27, 59, 15 ,4, 7, W, None, None, ,  
12/07/2017 06:36, 27, 59, 14 ,4, 10, W, None, None, ,  
12/07/2017 06:35, 27, 59, 14 ,4, 10, W, None, None, ,  
12/07/2017 06:26, 27, 58, 14 ,4, 8, W, None, None, ,  
12/07/2017 06:20, 27, 58, 14 ,5, 9, W, None, None, ,  
12/07/2017 06:16, 27, 57, 14 ,5, 9, W, None, None, ,  
12/07/2017 06:06, 27, 57, 14 ,5, 8, W, None, None, ,  
12/07/2017 06:05, 27, 56, 14 ,6, 8, W, None, None, ,  
12/07/2017 05:55, 28, 56, 14 ,4, 7, W, None, None, ,  
12/07/2017 05:50, 28, 56, 14 ,4, 9, W, None, None, ,  
12/07/2017 05:45, 28, 56, 14 ,4, 9, W, None, None, ,  
12/07/2017 05:35, 27, 55, 14 ,3, 7, SW, None, None, ,  
12/07/2017 05:35, 27, 55, 14 ,4, 7, W, None, None, ,  
12/07/2017 05:25, 27, 55, 14 ,4, 8, W, None, None, ,  
12/07/2017 05:20, 27, 55, 13 ,4, 8, W, None, None, ,  
12/07/2017 05:15, 27, 55, 13 ,6, 7, W, None, None, ,  
12/07/2017 05:05, 28, 54, 13 ,4, 9, W, None, None, ,  
12/07/2017 05:05, 28, 54, 13 ,4, 9, W, None, None, ,  
12/07/2017 04:55, 28, 54, 14 ,6, 7, W, None, None, ,  
12/07/2017 04:50, 28, 54, 14 ,2, 7, W, None, None, ,  
12/07/2017 04:45, 28, 54, 14 ,4, 9, W, None, None, ,  
12/07/2017 04:35, 28, 54, 14 ,5, 10, W, None, None, ,  
12/07/2017 04:35, 28, 54, 14 ,6, 10, W, None, None, ,  
12/07/2017 04:25, 28, 55, 14 ,7, 9, W, None, None, ,  
12/07/2017 04:20, 28, 55, 14 ,7, 9, W, None, None, ,  
12/07/2017 04:15, 26, 56, 13 ,4, 7, W, None, None, ,  
12/07/2017 04:05, 27, 55, 13 ,4, 6, W, None, None, ,  
12/07/2017 04:05, 27, 55, 13 ,4, 6, W, None, None, ,  
12/07/2017 03:55, 26, 55, 13 ,4, 6, W, None, None, ,  
12/07/2017 03:50, 26, 55, 13 ,4, 6, W, None, None, ,  
12/07/2017 03:45, 27, 54, 13 ,4, 7, W, None, None, ,  
12/07/2017 03:35, 27, 54, 12 ,4, 7, W, None, None, ,  
12/07/2017 03:35, 27, 54, 13 ,4, 7, W, None, None, ,  
12/07/2017 03:25, 28, 53, 13 ,5, 9, W, None, None, ,  
12/07/2017 03:20, 28, 53, 13 ,4, 9, W, None, None, ,  
12/07/2017 03:15, 28, 53, 13 ,4, 7, W, None, None, ,  
12/07/2017 03:05, 28, 52, 13 ,4, 8, W, None, None, ,  
12/07/2017 03:05, 28, 52, 13 ,4, 8, W, None, None, ,  
12/07/2017 02:55, 28, 52, 13 ,7, 9, W, None, None, ,  
12/07/2017 02:50, 28, 52, 13 ,4, 9, W, None, None, ,  
12/07/2017 02:45, 29, 52, 13 ,5, 10, W, None, None, ,  
12/07/2017 02:35, 29, 52, 14 ,7, 9, W, None, None, ,  
12/07/2017 02:35, 29, 52, 13 ,7, 9, W, None, None, ,  
12/07/2017 02:25, 28, 53, 13 ,6, 9, W, None, None, ,  
12/07/2017 02:20, 28, 53, 13 ,6, 9, W, None, None, ,  
12/07/2017 02:14, 28, 53, 13 ,6, 10, W, None, None, ,  
12/07/2017 02:05, 28, 54, 14 ,6, 9, W, None, None, ,  
12/07/2017 02:04, 28, 54, 13 ,6, 9, W, None, None, ,  
12/07/2017 01:54, 28, 55, 14 ,6, 7, W, None, None, ,  
12/07/2017 01:50, 27, 56, 14 ,4, 6, W, None, None, ,  
12/07/2017 01:44, 27, 56, 14 ,3, 6, W, None, None, ,  
12/07/2017 01:35, 27, 57, 14 ,4, 7, W, None, None, ,  
12/07/2017 01:34, 27, 57, 14 ,4, 7, W, None, None, ,  
12/07/2017 01:24, 26, 58, 14 ,4, 7, W, None, None, ,  
12/07/2017 01:20, 26, 58, 14 ,5, 7, W, None, None, ,  
12/07/2017 01:14, 26, 58, 14 ,4, 7, W, None, None, ,  
12/07/2017 01:05, 26, 59, 14 ,5, 6, W, None, None, ,  
12/07/2017 01:04, 26, 59, 13 ,6, 6, W, None, None, ,  
12/07/2017 00:54, 26, 59, 14 ,4, 6, W, None, None, ,  
12/07/2017 00:50, 26, 59, 14 ,4, 6, W, None, None, ,  
12/07/2017 00:44, 26, 60, 14 ,4, 5, W, None, None, ,  
12/07/2017 00:35, 26, 60, 14 ,3, 5, W, None, None, ,  
12/07/2017 00:34, 26, 60, 14 ,3, 5, W, None, None, ,  
12/07/2017 00:24, 25, 61, 14 ,4, 6, W, None, None, ,  
12/07/2017 00:20, 25, 61, 14 ,4, 6, W, None, None, ,  
12/07/2017 00:14, 25, 61, 14 ,4, 6, W, None, None, ,  
12/07/2017 00:05, 25, 62, 14 ,5, 7, NW, None, None, ,  
12/07/2017 00:04, 25, 62, 14 ,5, 7, NW, None, None, ,  
12/06/2017 23:54, 24, 63, 14 ,5, 7, W, None, None, ,  
12/06/2017 23:50, 24, 64, 14 ,4, 7, W, None, None, ,  
12/06/2017 23:44, 24, 64, 14 ,4, 5, W, None, None, ,  
12/06/2017 23:35, 24, 65, 14 ,4, 4, W, None, None, ,  
12/06/2017 23:34, 24, 65, 14 ,4, 4, W, None, None, ,  
12/06/2017 23:24, 24, 65, 14 ,4, 6, W, None, None, ,  
12/06/2017 23:20, 24, 65, 14 ,3, 4, W, None, None, ,  
12/06/2017 23:14, 23, 66, 14 ,3, 6, W, None, None, ,  
12/06/2017 23:05, 23, 66, 14 ,4, 6, W, None, None, ,  
12/06/2017 23:04, 23, 66, 14 ,4, 5, W, None, None, ,  
12/06/2017 22:54, 23, 66, 13 ,4, 6, W, None, None, ,  
12/06/2017 22:50, 23, 66, 13 ,2, 6, W, None, None, ,  
12/06/2017 22:44, 23, 66, 13 ,4, 6, W, None, None, ,  
12/06/2017 22:35, 23, 66, 13 ,4, 6, W, None, None, ,  
12/06/2017 22:33, 23, 66, 13 ,4, 6, W, None, None, ,  
12/06/2017 22:23, 23, 66, 13 ,4, 6, W, None, None, ,  
12/06/2017 22:20, 23, 65, 14 ,4, 6, W, None, None, ,  
12/06/2017 22:13, 23, 65, 13 ,5, 6, W, None, None, ,  
12/06/2017 22:05, 23, 65, 13 ,4, 6, W, None, None, ,  
12/06/2017 22:03, 23, 65, 13 ,2, 6, W, None, None, ,  
12/06/2017 21:53, 24, 65, 14 ,4, 6, W, None, None, ,  
12/06/2017 21:50, 24, 65, 14 ,4, 6, W, None, None, ,  
12/06/2017 21:43, 24, 65, 14 ,3, 7, W, None, None, ,  
12/06/2017 21:35, 24, 65, 14 ,4, 6, W, None, None, ,  
12/06/2017 21:33, 24, 65, 14 ,3, 6, SW, None, None, ,  
12/06/2017 21:23, 24, 65, 14 ,4, 6, W, None, None, ,  
12/06/2017 21:20, 24, 65, 14 ,4, 6, W, None, None, ,  
12/06/2017 21:13, 24, 65, 14 ,2, 6, W, None, None, ,  
12/06/2017 21:05, 24, 65, 14 ,3, 5, W, None, None, ,  
12/06/2017 21:03, 24, 65, 14 ,3, 5, W, None, None, ,  
12/06/2017 20:53, 24, 65, 14 ,4, 5, W, None, None, ,  
12/06/2017 20:50, 24, 65, 14 ,3, 4, W, None, None, ,  
12/06/2017 20:43, 23, 66, 14 ,2, 4, W, None, None, ,  
12/06/2017 20:35, 24, 66, 14 ,3, 4, W, None, None, ,  
12/06/2017 20:33, 24, 66, 14 ,4, 4, W, None, None, ,  
12/06/2017 20:23, 23, 66, 14 ,4, 4, W, None, None, ,  
12/06/2017 20:20, 23, 66, 14 ,4, 4, W, None, None, ,  
12/06/2017 20:13, 23, 66, 13 ,3, 4, W, None, None, ,  
12/06/2017 20:05, 23, 66, 13 ,2, 3, W, None, None, ,  
12/06/2017 20:03, 23, 66, 13 ,2, 3, W, None, None, ,  
12/06/2017 19:53, 23, 65, 13 ,1, 2, W, None, None, ,  
12/06/2017 19:50, 22, 65, 13 ,2, 2, W, None, None, ,  
12/06/2017 19:43, 22, 65, 13 ,2, 2, W, None, None, ,  
12/06/2017 19:35, 22, 65, 13 ,1, 2, W, None, None, ,  
12/06/2017 19:33, 22, 64, 12 ,1, 2, NW, None, None, ,  
12/06/2017 19:23, 22, 64, 12 ,2, 3, W, None, None, ,  
12/06/2017 19:20, 22, 64, 12 ,1, 3, W, None, None, ,  
12/06/2017 19:13, 22, 63, 12 ,2, 3, NW, None, None, ,  
12/06/2017 19:05, 23, 62, 12 ,2, 2, W, None, None, ,  
12/06/2017 19:02, 23, 62, 12 ,2, 2, W, None, None, ,  
12/06/2017 18:52, 23, 61, 12 ,1, 1, W, None, None, ,  
12/06/2017 18:50, 23, 61, 12 ,1, 1, W, None, None, ,  
Change End Date:

Copyright © 1998-2015 Vaisala, Inc.
All Rights Reserved
Send comments about the data to:
SCAN Web ® is a registered trademark of Vaisala, Inc.
SCAN Web Version 6.0